Theta_e
321 319 321 320 317 321 329 333 335 329 330 330 330 330 330 328 330 328 326 325 324 323 324 323 323 323 323 322 320 317 317 316 314 312 310 309 309 309 310 312 312 312 311 311
319 320 320 323 326 330 331 333 333 331 327 328 328 332 331 331 330 329 327 326 325 326 326 326 325 324 322 322 318 318 317 314 312 311 310 310 310 308 308 309 311 311 311 312
319 321 325 329 327 328 327 328 332 334 332 329 333 334 333 331 331 330 328 325 326 326 325 325 322 320 319 319 317 316 314 313 311 311 310 308 308 308 308 309 309 310 311 311
325 326 326 324 325 323 325 328 331 332 332 336 330 338 332 329 331 331 330 328 327 325 324 321 319 319 318 317 316 314 314 312 311 309 308 307 307 306 306 306 306 306 308 309
329 328 328 327 327 325 326 329 331 330 332 330 332 335 334 329 332 332 328 328 327 324 322 320 319 317 317 318 317 313 312 309 308 307 307 306 306 305 305 305 305 305 305 306
329 329 329 328 324 325 323 321 318 319 325 330 330 329 329 332 330 331 327 325 324 322 321 321 319 314 313 313 312 310 308 308 307 307 307 306 304 304 305 305 304 304 304 306
327 330 329 329 328 323 321 319 321 323 331 334 329 329 326 327 329 328 325 325 323 322 321 319 317 314 313 311 309 308 307 306 307 306 306 305 304 304 304 304 303 303 304 308
329 331 329 328 327 325 322 321 322 327 329 333 328 333 329 328 328 326 325 323 321 320 318 315 314 312 311 308 307 307 306 307 308 307 306 306 305 305 304 304 305 306 307 308
328 330 327 324 323 323 324 323 320 323 327 330 331 332 331 327 325 323 323 321 319 316 314 313 311 310 308 307 307 307 308 308 307 307 306 306 305 306 305 305 305 306 307 307
329 329 327 328 324 323 323 322 322 322 329 333 330 328 331 329 326 321 321 318 314 313 312 311 310 309 307 307 306 307 308 307 308 308 307 307 306 306 305 305 305 307 307 307
324 323 326 326 325 323 322 321 321 321 323 328 329 327 321 325 324 321 320 318 314 312 311 310 309 307 307 307 307 307 308 308 308 308 308 307 306 305 305 305 305 305 306 306
324 323 328 328 325 322 321 323 319 322 327 323 323 324 319 322 324 323 318 317 313 311 310 309 307 307 307 307 308 308 308 308 308 308 308 308 307 307 306 306 305 304 305 306
325 321 323 325 322 321 321 320 318 318 319 325 325 323 320 320 319 318 313 312 311 311 310 308 307 307 307 307 308 307 307 308 309 310 309 308 308 308 307 308 307 306 306 306
326 323 323 324 323 321 322 322 321 320 322 325 324 324 320 317 315 312 311 311 311 310 309 309 308 307 307 307 308 307 308 308 310 309 308 309 308 307 308 308 307 306 305 306
324 326 322 321 323 321 322 322 322 324 323 323 325 323 320 316 313 311 311 311 311 310 310 309 308 307 307 308 309 308 308 309 309 309 309 309 307 309 310 310 308 308 308 308
321 325 325 324 322 323 324 322 321 321 318 320 319 320 315 314 313 311 311 311 311 310 309 310 309 307 308 307 308 309 309 309 309 308 309 307 308 309 311 311 311 308 308 308
324 324 325 326 327 325 326 325 321 320 318 317 318 317 314 312 311 312 312 311 311 310 309 309 309 307 308 308 308 309 308 309 309 308 307 308 310 312 311 310 309 308 308 309
326 326 324 328 326 327 326 322 320 321 320 318 318 315 314 312 312 312 312 311 310 310 309 309 308 308 308 308 308 309 308 310 310 307 310 310 312 312 311 308 308 309 309 308
325 324 326 328 329 325 326 326 325 322 320 317 316 313 313 312 312 311 312 311 310 310 309 308 308 308 308 309 310 309 309 309 311 309 310 310 311 311 310 308 308 308 308 308
324 325 327 328 327 327 325 322 321 320 320 317 316 313 312 312 311 310 312 311 310 309 308 308 308 309 309 310 310 308 309 310 311 310 310 308 307 309 311 311 311 310 309 308
325 327 329 327 328 327 322 321 320 321 317 316 316 315 313 312 314 313 312 311 311 309 309 309 309 310 310 310 309 309 309 311 310 310 310 309 309 308 303 310 311 310 309 309
328 328 326 324 325 326 320 319 317 318 316 315 315 315 315 314 313 312 312 311 311 310 309 309 309 310 311 310 309 310 309 311 311 310 309 309 310 312 311 302 308 309 309 309
325 322 323 322 322 321 319 319 318 317 316 314 314 314 314 314 313 312 311 311 311 310 309 310 310 311 311 310 309 310 310 311 310 309 310 311 311 311 312 310 304 303 305 307
323 321 321 321 322 319 319 318 318 316 315 314 313 313 314 314 313 312 311 312 311 309 310 310 310 311 311 311 310 310 310 312 311 311 311 310 309 311 312 312 312 307 304 300
322 322 319 318 320 320 319 319 318 317 315 314 313 314 314 314 313 312 313 312 310 309 309 310 311 311 310 310 310 310 310 311 312 311 310 310 310 312 311 311 311 312 309 303
321 322 320 319 321 319 320 319 318 316 317 316 314 314 314 314 313 311 312 311 310 311 310 311 311 311 311 310 311 310 311 311 312 311 311 311 310 311 312 311 310 309 310 306
Wind_Speed
5 6 5 7 7 4 8 16 14 7 10 13 14 7 3 0 9 8 9 8 8 7 5 3 1 4 9 8 9 11 12 12 12 17 23 22 21 22 17 15 16 15 16 17
6 5 1 2 6 7 13 14 11 11 8 13 7 8 6 6 6 8 6 7 7 5 2 2 5 7 7 4 8 10 11 13 17 22 22 22 23 21 19 15 13 13 14 14
6 4 4 9 3 8 2 7 8 11 9 11 13 5 3 2 3 5 7 9 8 5 3 1 5 7 6 7 9 9 12 16 21 23 24 25 22 19 19 15 13 11 10 11
5 6 9 9 5 5 4 10 21 26 11 6 2 3 3 2 2 8 8 11 10 4 2 2 3 3 3 7 7 9 16 20 21 20 20 22 21 20 19 19 19 16 14 14
1 1 6 9 3 2 2 23 23 14 12 7 1 3 3 2 1 5 7 11 10 5 4 1 4 4 2 7 11 15 18 21 18 17 20 22 22 20 20 20 18 14 13 14
1 1 3 4 4 4 4 8 6 5 4 4 3 4 4 5 7 7 10 10 8 6 5 4 5 2 3 7 12 19 20 14 16 19 22 20 19 20 19 17 15 14 11 10
6 4 3 3 4 5 6 6 3 4 5 2 1 3 5 3 7 9 15 12 10 6 6 6 6 4 7 13 20 18 13 15 18 23 17 17 18 20 18 18 16 13 11 10
3 7 6 6 2 4 4 5 5 3 4 3 4 3 3 1 9 11 13 12 11 7 8 6 3 6 13 18 14 10 12 13 19 23 19 16 15 19 18 16 14 14 9 15
3 4 5 9 5 2 1 4 2 6 3 4 1 2 2 5 7 9 12 15 11 11 7 4 3 9 13 10 9 8 12 14 17 20 22 17 16 15 17 14 12 12 13 11
2 2 3 4 8 11 6 3 3 3 4 3 2 3 3 6 7 8 11 13 14 12 7 2 6 10 5 6 7 8 13 14 15 19 20 19 17 16 14 13 13 13 10 9
2 3 6 4 5 1 5 4 5 5 3 4 3 4 5 8 9 10 18 17 16 12 6 2 7 7 5 4 5 9 12 13 17 17 19 20 17 15 14 13 10 9 8 6
4 4 2 3 7 4 4 2 3 4 0 2 3 4 4 11 19 21 16 18 16 10 3 3 6 4 6 4 5 10 12 14 15 19 17 16 19 18 15 14 12 9 9 8
1 3 3 6 5 7 6 4 5 6 3 1 3 4 7 9 13 15 16 20 14 8 3 2 2 3 6 4 6 9 12 14 14 16 16 16 14 17 18 16 13 9 9 9
4 3 4 4 2 2 6 7 5 5 4 2 3 2 1 4 5 12 16 15 10 5 1 2 3 4 4 4 7 10 11 15 14 16 16 15 17 17 19 19 16 11 9 10
5 6 6 6 13 15 12 10 9 7 4 3 3 4 3 3 6 13 17 12 7 3 3 2 3 4 2 4 6 8 10 13 13 13 13 14 14 17 20 19 17 17 15 13
4 2 5 8 14 14 13 8 9 8 6 5 5 3 3 9 12 16 13 7 4 6 5 3 4 2 1 5 8 7 9 11 11 13 13 13 13 15 17 17 16 13 14 14
3 6 3 5 2 2 7 7 6 4 5 1 1 2 7 6 12 13 10 7 7 6 3 4 3 1 3 5 8 8 8 9 11 12 13 12 14 17 15 14 13 11 14 15
3 3 2 2 3 3 2 5 8 8 5 4 5 4 3 9 10 10 7 4 4 4 4 3 2 1 3 5 6 6 5 7 9 9 12 13 15 17 15 16 13 12 13 15
7 2 4 4 3 2 2 0 3 1 2 6 4 6 9 11 8 5 6 5 4 2 2 2 1 1 4 5 5 4 3 5 7 7 8 10 12 11 12 13 15 14 13 13
5 5 4 3 4 2 3 6 15 9 2 4 3 12 14 12 0 6 9 7 2 1 0 2 2 3 4 3 5 3 4 6 7 7 8 8 10 9 9 10 6 8 10 10
5 4 4 3 4 2 5 14 3 3 4 2 1 10 15 8 10 3 7 6 3 2 2 1 2 2 4 3 2 1 4 4 5 5 6 7 11 12 12 6 4 5 5 6
3 3 2 3 4 3 16 8 6 3 3 2 2 2 6 7 4 4 6 6 5 5 5 3 4 3 3 3 2 1 3 2 4 2 3 6 10 13 15 13 5 5 4 5
3 2 2 2 4 1 5 8 5 4 3 3 4 4 4 3 6 9 9 9 7 6 5 4 3 4 4 2 4 3 2 3 2 2 3 7 8 12 13 11 11 8 7 8
6 8 3 3 0 6 6 4 1 1 3 2 4 2 5 6 9 9 9 8 8 7 6 5 4 4 3 2 6 5 4 1 0 2 3 4 7 12 15 15 8 9 11 10
3 6 3 2 2 2 6 6 5 4 4 5 5 4 4 6 7 7 7 7 6 8 7 6 6 6 4 4 5 6 3 2 2 1 4 5 7 11 15 18 7 7 8 10
10 4 2 3 7 5 13 8 4 9 8 7 7 6 9 8 7 7 7 6 7 8 9 9 9 8 7 6 5 7 4 5 4 2 6 9 7 12 16 14 7 5 7 7
Wind_Direction
21 46 258 284 193 193 97 85 92 114 123 84 117 117 116 243 125 159 184 166 158 148 155 141 348 300 299 322 332 333 329 326 329 336 341 342 345 342 327 303 294 296 288 287
8 260 236 252 78 111 98 104 94 74 99 108 142 110 131 190 172 186 191 199 168 177 226 268 314 297 324 300 316 311 313 324 333 336 340 338 332 331 325 315 303 295 286 289
181 244 29 108 69 104 72 134 172 134 102 110 130 77 97 42 173 175 217 214 197 199 235 337 331 325 304 294 302 304 319 327 331 334 336 334 327 323 321 322 324 319 307 298
102 354 94 117 146 143 71 116 134 138 129 153 235 115 265 211 248 169 197 208 204 197 201 325 334 328 306 282 292 310 318 325 328 335 345 341 342 337 332 326 320 310 295 290
219 100 81 66 346 87 105 137 148 150 119 114 91 114 193 120 262 177 204 200 198 220 191 3 321 296 248 274 305 316 326 331 339 349 344 341 338 331 322 320 316 313 315 289
87 61 60 117 33 53 97 132 101 116 117 70 279 139 201 184 200 173 203 200 200 221 211 260 247 273 343 331 331 334 341 353 355 351 343 346 351 351 344 340 337 332 327 318
347 343 296 116 125 21 73 59 359 8 29 181 253 73 229 201 171 189 187 195 212 235 225 210 222 276 323 334 336 349 7 1 357 354 352 352 2 1 354 349 352 346 346 357
83 360 1 313 93 146 77 129 146 252 178 201 7 134 235 150 168 171 173 186 183 179 185 196 230 338 338 342 345 2 355 356 356 357 357 355 354 4 6 0 4 9 18 41
57 359 3 50 43 70 44 52 171 107 68 97 218 125 120 112 102 132 173 182 175 171 176 150 19 344 341 356 0 10 356 356 1 9 9 3 4 356 5 9 13 7 57 49
14 -0 10 333 41 26 95 153 23 16 134 111 179 246 236 182 174 171 181 186 166 163 157 113 354 340 350 1 2 357 357 6 6 8 9 11 9 15 14 16 20 67 52 31
30 77 304 39 26 222 11 11 51 109 78 142 166 256 210 187 187 185 195 193 178 168 154 26 348 347 351 2 359 2 5 358 8 15 14 18 18 20 22 18 23 17 25 14
354 123 55 24 313 3 81 76 99 109 159 62 126 269 315 183 183 193 183 187 173 170 152 7 7 14 20 357 348 1 9 6 4 12 14 20 24 28 24 24 25 25 14 13
18 21 20 352 347 2 47 359 86 93 86 41 127 266 41 140 157 180 163 164 162 163 136 29 354 359 5 22 3 7 12 13 19 12 12 12 14 22 27 22 25 30 36 31
94 79 155 190 247 126 53 29 20 91 83 160 216 201 251 183 136 143 154 157 160 155 150 314 353 1 15 19 19 22 16 18 19 12 14 31 33 32 37 33 35 40 35 27
81 52 50 64 89 78 75 63 43 54 119 106 209 188 255 210 161 165 159 158 165 198 266 317 353 356 28 16 10 10 7 13 19 13 27 32 43 43 40 37 51 49 46 45
23 95 64 51 84 81 71 37 52 34 25 36 54 18 52 112 145 151 158 161 210 233 238 322 337 332 0 5 359 2 7 17 23 37 51 56 39 28 28 30 48 43 39 52
64 134 129 169 27 65 42 10 46 56 30 112 312 310 136 101 140 161 172 200 213 230 265 303 317 260 349 3 357 3 12 46 51 52 57 40 28 27 28 34 45 54 60 65
58 68 63 91 7 53 97 9 105 85 23 70 90 93 145 155 158 170 188 197 248 263 288 316 294 236 339 348 350 359 36 72 53 53 44 40 37 37 42 41 52 62 74 77
48 88 68 108 54 299 280 277 318 347 17 344 131 144 146 144 148 207 212 238 258 292 287 312 219 330 355 356 357 17 79 67 54 61 59 31 39 69 49 49 58 63 68 75
8 68 115 87 99 108 291 320 322 155 340 19 201 178 172 163 132 266 213 225 256 240 280 113 79 2 1 356 9 85 106 82 75 81 52 39 34 35 28 35 38 50 56 56
341 358 47 96 92 20 303 343 31 67 250 321 135 213 193 206 246 311 203 224 240 230 256 232 274 330 348 357 29 145 122 91 99 78 48 33 18 27 24 24 17 30 35 49
354 8 23 69 71 10 353 6 77 197 172 255 264 245 218 232 237 225 227 228 241 260 251 277 269 292 314 320 166 264 159 80 101 100 57 36 23 16 17 19 345 339 345 348
33 115 113 94 184 161 78 102 111 166 190 243 314 293 249 247 234 235 243 239 248 256 240 261 259 282 292 227 184 184 142 78 90 70 5 355 11 10 11 8 13 1 326 303
344 36 74 69 5 146 156 148 156 269 317 327 334 345 233 254 241 250 245 248 256 234 233 264 246 288 286 190 179 174 151 36 112 295 346 35 11 351 359 357 335 344 3 8
317 358 19 13 13 236 241 244 240 259 285 319 319 303 291 249 294 260 259 265 246 233 242 254 262 277 255 204 187 179 195 196 311 274 337 344 329 349 359 4 345 316 327 5
16 328 66 240 339 330 343 318 289 285 287 316 309 300 271 269 297 285 272 259 256 252 251 264 271 269 239 217 209 194 217 232 274 284 332 340 333 343 352 351 341 329 308 317